GFSGBSN_sfc_30mbdewp_150.txt.gz
Dewpoint
61 61 61 60 60 60 59 59 58 57 57 58 59 59 59 57 52 48 46 45 45 46 46 47 48 49 39 17 23 25 39 35 34 30 25 27 24 22 19 22 21 18 19 24 22 21 19
61 61 61 61 60 60 60 60 59 58 57 58 58 59 58 53 49 46 46 45 45 45 45 46 47 48 25 25 24 32 30 27 27 22 23 24 21 29 26 24 22 21 23 23 24 21 20
60 60 60 60 60 60 60 60 60 59 59 58 58 58 54 49 46 45 44 45 44 44 45 46 47 46 30 24 19 27 30 26 25 23 21 23 21 27 29 23 26 24 21 21 21 21 20
57 56 56 57 58 60 60 60 60 60 59 59 57 53 49 45 43 44 45 45 44 44 46 47 48 44 20 23 32 35 33 29 23 24 22 22 22 29 29 28 21 18 19 14 15 18 18
55 55 56 55 56 56 57 58 55 55 54 53 51 48 46 46 46 45 44 43 43 46 47 48 41 39 26 29 25 27 32 24 18 22 20 22 27 25 27 20 10 17 -5 10 12 19 18
55 55 54 54 54 54 54 53 53 52 51 51 50 49 49 47 46 46 45 43 45 42 45 46 43 30 30 27 24 23 27 24 25 23 22 23 25 24 26 18 3 -2 7 13 11 18 19
54 54 54 54 54 54 54 54 53 52 52 51 50 50 48 47 48 47 42 33 33 32 40 28 34 27 23 27 31 25 33 33 33 25 22 25 19 12 14 21 14 14 15 17 20 20 21
55 55 54 54 54 54 54 54 53 52 52 51 51 50 50 49 49 46 38 29 36 37 33 35 33 35 34 33 28 27 26 30 32 28 27 27 22 18 18 20 23 22 20 19 21 22 21
54 54 55 54 54 54 54 53 53 52 52 51 51 51 50 49 46 39 35 27 43 40 33 31 32 32 32 33 31 30 24 27 27 28 28 24 24 26 24 22 20 21 21 21 19 21 19
51 51 52 54 54 54 54 53 52 52 51 51 51 50 49 48 41 41 37 44 40 34 24 23 21 25 29 31 28 32 30 23 28 23 28 29 28 25 25 24 25 21 24 23 23 20 18
50 50 51 52 53 54 53 53 53 52 51 51 50 49 49 44 40 38 40 41 42 35 25 24 22 23 24 27 20 22 28 25 23 28 27 23 25 28 29 27 26 23 24 23 21 19 18
50 50 49 49 50 52 53 54 52 52 51 51 50 49 49 44 41 37 42 45 43 31 25 25 20 16 18 18 14 21 22 20 22 26 26 24 20 19 23 21 26 22 20 19 20 18 16
47 48 49 50 49 49 52 52 53 52 51 51 50 49 47 41 33 41 45 39 27 26 25 22 23 20 14 13 12 24 14 20 18 15 16 16 17 15 17 17 17 16 16 15 14 15 14
45 46 47 48 49 50 50 50 52 52 52 51 50 49 49 41 42 42 41 32 23 24 25 22 23 24 15 17 13 18 17 12 14 11 9 7 6 10 11 13 15 14 15 15 10 10 10
42 43 44 45 46 47 49 50 50 50 51 52 51 48 44 44 43 41 36 26 24 20 20 22 23 18 22 24 22 18 19 19 14 12 8 7 7 13 9 10 13 13 12 17 16 19 15
41 41 41 42 42 44 45 46 49 49 49 51 46 44 43 44 43 40 32 27 24 26 21 21 20 18 16 14 23 25 23 25 23 15 13 13 9 18 17 17 14 11 18 15 19 13 12
39 39 40 40 41 42 44 45 45 48 48 49 44 39 42 45 42 37 28 26 26 26 26 20 20 17 17 14 13 15 24 24 23 24 21 20 19 19 20 17 15 17 14 19 19 19 11
37 37 38 39 40 41 41 44 46 45 47 47 42 32 43 42 32 34 30 28 27 24 22 22 21 19 17 17 14 15 23 20 25 25 28 31 27 20 20 22 23 24 23 23 16 16 22
36 37 37 38 39 40 40 42 43 45 44 44 34 33 42 42 28 28 31 28 25 22 21 21 20 20 21 16 15 16 19 24 25 27 29 28 31 24 20 17 26 25 25 25 21 22 22
35 36 37 37 38 39 40 40 41 43 44 39 33 29 32 37 33 30 29 27 27 26 24 23 21 18 18 20 20 21 23 24 23 25 29 24 28 27 23 24 24 25 26 24 27 19 22
34 34 34 36 36 37 39 40 41 42 43 39 34 30 32 28 29 32 31 30 26 23 25 23 21 18 16 15 19 21 23 23 24 25 27 25 19 19 19 18 20 24 24 19 24 27 23
32 33 33 34 35 35 37 39 40 41 41 38 31 30 32 31 32 31 32 29 27 25 22 21 20 19 19 17 15 16 21 23 22 22 24 28 26 26 24 23 22 23 27 26 22 20 25
32 32 34 33 35 36 36 37 39 40 40 35 37 36 33 29 30 30 29 31 30 27 26 22 21 19 19 17 18 16 16 18 20 21 25 25 23 22 17 21 23 22 24 24 21 20 19
31 31 31 33 33 34 35 37 38 39 39 37 35 36 30 24 27 25 29 32 31 31 30 25 23 21 21 23 23 25 25 25 25 23 28 26 25 22 20 24 16 18 21 23 20 19 19
34 34 33 32 32 33 34 35 37 38 38 38 37 33 29 22 25 23 24 27 29 32 32 33 29 29 28 26 23 21 20 19 20 23 25 28 23 18 16 16 17 17 17 16 17 14 16
32 31 31 33 31 33 34 35 36 38 38 39 38 37 32 26 21 24 28 31 28 29 31 32 35 35 32 30 24 20 17 17 16 17 24 28 26 20 21 16 13 11 15 18 17 11 16
33 34 34 33 34 33 34 35 36 37 38 37 36 37 34 27 27 26 24 24 30 30 29 30 31 32 34 29 25 21 18 18 14 12 17 23 22 21 20 17 17 20 16 20 12 10 25
36 36 37 37 36 36 34 35 36 36 37 37 34 39 35 29 27 28 27 25 23 28 26 30 30 31 30 27 26 23 21 19 16 14 14 14 15 16 18 16 11 19 25 17 17 25 27
39 39 38 38 38 37 35 35 37 36 37 38 33 36 38 33 31 35 31 32 34 28 31 33 28 31 31 28 26 24 19 19 16 14 17 9 11 8 10 9 17 24 24 28 32 30 29

GFSGBSN_sfc_30mbdewp_153.txt.gz
Dewpoint
60 60 60 60 60 59 59 59 58 57 56 56 56 58 59 58 57 52 48 46 46 45 45 46 47 47 34 25 33 25 36 33 32 25 25 26 26 24 18 22 22 19 19 23 24 24 21
60 60 60 60 60 60 60 60 59 58 57 56 56 58 58 59 54 50 46 45 45 44 44 45 46 48 17 36 30 29 28 27 26 22 23 23 21 29 26 24 23 23 23 22 23 23 22
61 60 60 60 60 60 60 60 60 59 58 58 57 58 58 57 51 47 44 44 44 44 44 45 46 45 23 37 22 26 31 25 25 23 21 23 22 26 29 24 26 25 19 20 20 21 21
61 61 60 60 60 60 60 60 60 59 59 59 58 58 57 51 46 44 45 43 43 43 44 46 47 42 29 27 29 31 33 29 28 25 23 23 22 28 28 29 21 18 18 9 13 19 20
60 59 58 58 58 58 58 59 59 59 59 59 57 53 49 46 46 45 44 45 45 46 47 47 40 35 32 32 28 27 31 25 22 21 21 23 28 25 28 21 14 14 -3 6 8 18 17
57 57 56 56 56 57 57 57 57 55 53 52 50 49 48 47 47 47 45 44 45 45 45 46 42 31 32 36 25 24 30 25 24 23 22 24 27 23 25 16 11 7 7 10 8 16 20
56 56 55 55 55 55 55 54 54 53 52 51 50 50 49 48 48 47 41 39 34 33 39 32 35 31 28 28 31 25 28 29 29 24 22 24 19 17 16 20 12 7 11 11 17 19 21
55 54 54 54 55 55 55 54 53 53 52 51 51 50 49 50 48 46 39 34 36 37 33 35 34 35 34 34 31 27 30 30 31 26 26 27 20 20 17 20 20 20 17 17 20 21 21
54 54 54 54 54 54 54 54 53 53 52 52 51 50 50 48 46 39 35 33 43 39 34 33 35 34 34 33 32 32 25 30 30 29 26 26 26 27 23 21 19 20 18 18 14 19 22
52 51 52 53 54 54 54 54 53 53 52 51 51 50 49 47 41 41 37 42 40 38 29 28 24 27 32 32 31 32 32 23 28 26 29 27 27 24 24 23 21 18 22 20 20 20 16
50 50 50 52 53 54 54 54 53 52 52 52 51 49 48 42 41 38 41 42 44 37 25 27 22 25 30 30 22 23 31 28 26 26 27 24 27 28 24 23 26 24 26 24 24 22 20
50 50 50 50 49 51 53 54 53 52 52 51 50 49 48 44 41 38 41 45 42 32 25 28 19 18 25 23 17 23 26 24 26 26 28 26 22 27 28 27 28 23 22 20 21 20 16
48 49 50 49 49 50 52 52 53 52 51 51 50 50 46 42 35 41 44 37 31 28 27 24 23 19 16 15 16 19 22 26 21 23 24 24 23 20 19 18 19 17 19 16 15 15 11
46 47 47 48 50 50 50 50 51 52 52 51 50 50 47 41 42 42 40 33 26 26 27 23 24 23 15 15 13 20 15 21 21 16 12 16 12 19 19 21 20 18 16 16 15 13 13
43 43 44 45 46 47 49 50 49 49 50 52 51 48 46 45 43 41 37 28 26 24 20 20 23 19 22 24 20 16 21 16 16 16 16 9 8 12 11 14 19 18 15 17 16 19 15
42 42 42 42 42 44 45 46 49 48 49 50 47 44 44 45 44 40 35 29 27 26 22 21 21 19 17 14 22 20 22 24 23 16 14 13 9 17 18 12 14 15 17 14 19 10 10
40 40 41 41 41 42 43 45 45 48 48 48 44 39 44 46 44 37 29 29 27 26 25 20 20 17 17 15 14 16 24 24 25 25 22 21 16 17 21 17 16 16 11 16 19 18 9
37 37 38 39 40 41 42 44 46 45 48 44 38 32 43 45 32 32 30 30 29 25 26 25 21 19 18 17 16 16 22 23 27 30 31 31 28 20 18 25 24 25 24 24 18 14 22
36 37 37 38 39 40 40 41 43 45 44 42 33 32 41 43 28 29 32 30 26 23 23 22 21 21 22 18 21 23 22 25 27 29 25 27 31 24 20 20 28 27 27 28 26 23 19
34 35 37 37 37 38 40 40 42 43 44 38 34 29 33 36 33 32 29 30 28 27 23 23 22 21 21 24 21 19 24 26 28 25 28 28 29 27 23 26 29 26 28 30 29 23 24
33 34 34 35 36 37 38 40 41 42 43 39 34 30 33 28 30 31 32 32 28 27 26 24 21 19 19 19 22 23 25 27 26 27 28 28 24 24 26 29 28 28 27 27 27 27 24
33 33 33 34 34 35 36 38 40 41 42 37 31 30 32 31 32 30 30 30 30 28 25 25 22 21 18 17 19 18 22 23 22 25 26 29 25 27 24 26 25 25 26 27 26 26 25
32 32 33 34 33 35 35 36 38 40 39 34 37 35 33 29 28 28 26 27 30 32 32 29 27 23 22 22 22 21 20 20 20 20 24 28 26 24 17 20 22 20 22 22 21 24 23
32 32 31 32 34 33 34 35 37 38 39 35 35 33 28 20 25 23 26 26 26 29 29 32 32 30 26 24 24 23 23 22 22 22 22 24 25 23 16 22 14 15 21 24 23 24 24
34 34 33 32 31 31 34 34 35 38 38 36 36 32 28 21 22 21 22 23 24 26 28 29 34 34 32 30 25 22 21 21 22 25 26 27 23 18 17 16 17 16 17 18 20 17 20
31 32 33 34 34 34 33 33 35 37 38 36 35 36 31 25 20 22 19 21 25 27 28 31 34 37 36 32 28 21 17 17 18 18 25 28 27 20 20 17 12 13 16 20 19 12 16
32 32 33 33 33 34 33 33 34 36 37 37 33 36 31 27 26 24 23 21 22 27 27 31 32 34 35 29 25 23 18 19 15 15 20 23 24 20 18 16 16 21 17 20 12 10 19
35 34 34 35 36 36 35 35 34 36 37 37 35 36 32 27 25 27 28 24 23 26 23 29 31 32 30 26 26 25 23 19 17 17 18 19 20 21 21 19 16 21 21 15 18 25 28
38 38 36 36 37 38 37 36 34 36 37 37 31 36 37 32 28 33 32 29 28 26 24 24 26 30 32 29 29 27 24 21 19 15 18 16 17 17 20 19 22 23 20 25 27 26 29

GFSGBSN_sfc_30mbdewp_156.txt.gz
Dewpoint
60 60 60 59 60 59 59 58 57 57 56 56 56 56 57 58 57 57 52 47 45 45 45 45 46 44 37 40 39 30 32 30 29 23 22 21 19 18 11 16 18 17 15 19 20 22 20
60 60 60 59 59 59 59 59 58 58 57 56 56 56 57 58 58 56 51 47 44 44 44 45 45 44 35 38 36 28 27 26 27 24 20 22 21 26 20 17 18 22 20 19 19 19 21
60 60 60 59 59 59 59 59 59 59 58 58 57 56 56 58 58 54 49 46 45 45 44 45 45 36 35 42 40 30 29 30 28 25 21 20 22 22 25 19 24 22 18 11 13 15 16
61 60 60 60 59 59 59 59 59 59 59 59 58 58 57 58 56 50 46 45 43 43 44 44 46 35 41 44 35 32 34 30 29 26 24 22 22 21 23 26 21 15 12 5 8 14 16
61 61 60 60 59 59 59 59 59 59 59 59 59 58 58 55 48 45 44 44 45 46 47 45 39 36 41 38 35 30 29 25 25 25 24 22 23 22 25 20 18 16 13 11 8 12 13
60 60 60 60 59 59 58 58 58 58 59 59 59 56 52 48 46 46 46 45 45 45 44 40 36 37 39 41 33 26 28 25 23 22 22 22 23 23 21 20 18 18 14 14 10 9 15
59 59 58 58 58 57 57 57 56 56 56 55 52 51 49 49 48 47 42 43 37 38 35 41 39 37 32 31 30 26 26 25 25 23 22 23 21 21 22 21 20 17 12 12 12 11 16
56 57 56 56 56 57 56 55 54 53 52 52 51 50 49 49 48 46 41 31 36 40 36 35 34 36 37 36 35 31 31 27 28 28 27 26 24 27 27 22 21 18 17 16 16 16 17
55 55 55 55 55 55 54 54 53 53 52 51 51 50 49 48 45 42 40 37 42 41 37 37 37 35 34 34 34 36 29 32 32 32 30 29 30 27 26 23 20 21 20 20 18 18 16
51 52 53 55 55 55 54 54 53 53 52 51 51 50 49 47 43 41 41 43 43 40 33 32 29 31 34 35 33 34 35 32 30 30 31 30 30 30 28 27 25 24 23 20 18 16 16
51 50 51 52 52 54 54 54 53 53 52 52 51 50 48 46 43 40 42 44 45 40 26 29 24 29 30 31 25 27 33 33 30 28 29 29 27 27 27 27 27 25 24 21 19 18 18
50 51 51 51 50 52 54 54 53 53 52 52 51 50 47 45 43 41 42 46 44 35 26 27 21 22 26 27 23 25 27 31 29 29 29 28 29 26 26 26 25 24 24 22 22 19 18
49 50 50 49 49 51 52 52 53 53 52 52 51 50 46 43 40 41 45 39 33 29 26 25 22 18 19 18 20 20 25 25 24 27 26 27 27 27 24 22 26 24 20 20 18 17 17
47 48 49 50 50 50 50 51 52 52 52 51 50 50 47 41 41 45 41 35 28 25 26 24 24 23 18 17 15 16 17 21 24 23 21 22 20 26 26 24 22 23 22 21 22 20 19
44 45 45 46 47 49 50 49 49 50 52 51 50 48 46 44 44 44 38 29 30 28 24 21 23 22 22 21 17 15 19 17 17 23 20 16 15 15 13 24 24 24 21 21 20 20 19
42 42 42 43 44 45 46 49 48 48 49 51 47 45 44 47 45 42 36 31 30 27 21 21 21 21 20 18 21 20 17 23 23 22 21 17 12 16 17 14 13 20 18 20 18 14 14
41 41 41 41 41 42 45 46 47 48 47 46 43 40 44 47 44 39 31 32 31 27 23 20 22 20 18 16 18 21 23 23 25 25 23 18 16 18 20 18 13 15 14 14 17 16 12
38 38 39 40 41 41 43 46 45 48 46 43 37 32 42 45 33 32 31 32 29 27 26 26 23 20 19 18 15 17 22 25 28 30 26 29 24 17 16 23 23 24 22 20 16 16 17
37 37 38 38 39 41 41 42 44 45 46 41 35 33 41 43 28 29 31 31 30 26 24 25 24 22 21 19 18 19 22 27 28 28 28 28 30 22 25 24 26 28 29 28 27 24 19
34 36 37 37 38 39 40 40 42 44 43 40 35 27 34 36 32 32 31 32 32 30 28 25 23 24 22 21 21 20 24 27 28 27 29 29 29 29 25 27 28 28 29 31 30 26 26
33 34 34 35 37 37 38 40 41 41 43 39 36 31 32 28 30 31 32 32 31 31 29 26 24 22 22 22 22 24 26 27 27 29 27 27 23 27 27 29 28 27 25 27 28 27 25
34 33 33 34 34 35 36 38 40 41 42 37 32 31 33 32 33 31 30 29 27 31 31 26 24 22 22 21 21 19 23 26 26 24 25 26 22 23 21 21 24 23 22 21 20 22 24
32 33 33 34 34 35 35 36 38 41 39 36 38 38 34 29 30 26 23 23 24 28 31 34 33 31 27 23 23 24 26 23 22 20 21 24 24 21 16 15 16 15 16 16 16 19 21
34 34 33 32 34 34 34 36 37 39 39 37 35 31 28 19 22 22 24 27 29 30 29 31 33 32 31 34 32 30 27 24 21 19 20 21 22 20 16 15 16 12 15 17 16 15 18
32 32 32 31 31 32 34 33 35 38 39 35 35 31 28 20 17 14 16 19 23 27 28 30 29 32 34 35 30 27 26 23 21 20 19 19 17 17 17 11 11 11 13 19 18 13 15
32 34 35 36 34 33 33 34 35 35 38 36 32 33 31 22 17 17 15 14 15 15 18 20 27 28 34 31 28 22 19 20 14 16 19 20 20 18 13 12 9 12 13 16 16 11 12
32 32 32 32 33 35 35 34 34 36 37 37 33 34 30 25 21 19 17 16 18 17 18 26 32 33 33 29 25 23 20 19 14 14 20 19 22 20 17 14 15 14 15 18 13 10 14
34 34 34 34 35 35 35 36 35 34 36 37 33 35 30 26 22 22 22 20 19 18 17 16 25 29 30 26 25 27 26 20 16 14 15 18 18 18 18 16 15 17 19 14 15 24 21
38 37 35 35 34 35 36 37 36 34 36 37 31 35 36 32 25 30 29 27 23 21 21 20 21 26 31 27 27 30 26 26 20 16 18 16 17 17 17 16 20 23 18 21 23 16 24

GFSGBSN_sfc_30mbdewp_162.txt.gz
Dewpoint
60 60 60 60 60 60 60 59 59 58 57 57 57 57 57 57 57 58 58 57 55 51 49 48 49 48 47 38 34 35 38 35 31 33 32 31 26 23 17 15 12 11 12 14 14 14 15
60 60 60 59 59 60 60 59 59 58 57 57 56 56 56 56 56 57 58 57 55 51 48 48 48 47 46 37 36 36 35 35 35 36 34 32 25 23 20 17 15 15 14 15 17 16 15
61 60 60 60 59 59 59 59 59 58 57 56 56 56 55 55 55 56 57 58 55 51 49 48 47 45 46 43 40 40 38 38 36 35 34 35 31 25 22 20 20 19 15 16 13 13 13
61 61 60 60 59 59 59 59 58 58 57 57 57 56 56 56 55 55 57 57 53 49 48 48 48 45 46 46 44 39 39 40 40 38 38 38 35 28 26 25 21 19 19 17 17 14 11
61 61 60 60 59 59 58 58 58 58 58 58 58 58 58 57 57 56 57 53 48 47 47 48 45 45 43 44 43 43 43 40 39 37 37 35 31 28 28 26 23 23 19 18 17 17 9
60 60 60 60 59 59 59 58 58 58 58 58 58 58 58 58 57 56 50 46 47 46 47 44 44 44 44 40 40 41 35 37 35 28 28 30 28 26 28 27 22 22 21 21 20 19 12
60 60 60 60 59 59 59 59 58 58 58 58 58 58 58 57 53 49 47 46 45 46 46 42 38 38 36 42 33 40 35 31 32 30 27 27 25 25 27 27 26 25 23 22 22 22 20
59 59 60 60 60 59 59 59 58 58 58 57 56 56 53 51 49 48 48 47 49 41 39 42 43 41 40 41 36 34 34 33 30 31 28 27 24 25 26 26 25 24 24 23 23 23 23
57 59 59 60 59 59 59 59 58 57 56 55 53 52 51 50 49 47 44 47 43 45 40 40 40 39 40 40 39 38 36 29 27 27 27 27 27 28 26 26 26 26 25 25 24 25 25
50 53 57 59 59 59 58 58 56 55 53 52 51 51 50 49 46 46 44 45 42 47 37 35 36 38 39 38 35 37 39 37 29 27 29 29 30 29 29 28 29 27 28 27 25 24 23
50 49 50 52 56 57 57 55 54 53 52 52 51 50 49 47 47 45 44 44 47 44 29 31 33 34 34 36 32 32 35 35 35 35 31 30 31 31 31 31 31 29 30 29 28 27 26
50 50 50 50 51 54 53 53 53 52 52 51 51 50 49 48 46 45 49 47 46 36 29 27 27 27 28 34 34 27 31 34 36 34 34 32 32 31 30 30 30 30 29 29 29 27 24
50 49 50 50 50 50 53 53 52 52 52 51 51 50 49 50 46 49 50 46 33 30 29 28 23 25 26 28 30 28 25 31 31 30 31 32 32 32 31 29 29 27 26 25 23 24 23
48 49 49 49 49 49 51 52 53 52 52 51 51 49 50 50 50 50 48 38 27 30 29 28 25 22 21 24 24 24 23 24 30 29 25 24 23 29 30 29 27 26 25 25 22 22 22
47 49 49 49 50 50 50 50 50 52 52 52 50 49 48 47 49 50 42 29 31 29 27 35 34 24 22 22 21 20 20 20 21 26 24 21 19 23 23 27 27 26 24 25 24 25 26
45 47 47 48 49 49 49 48 48 48 52 51 47 45 45 48 48 46 37 32 32 28 27 25 29 26 22 21 21 20 18 22 18 20 22 22 21 22 20 20 21 25 25 22 30 27 21
43 43 43 44 46 47 48 48 48 49 50 50 45 40 43 48 47 41 31 32 32 31 30 29 24 23 22 20 18 23 23 25 25 23 23 23 21 20 20 17 16 15 19 22 23 31 26
41 41 41 41 42 44 46 46 48 48 46 43 39 33 43 46 34 32 33 34 31 27 29 29 26 25 24 24 20 20 19 30 30 28 26 28 25 22 20 22 24 23 19 18 19 22 22
38 38 39 40 40 41 43 45 45 48 47 42 33 32 41 41 29 30 35 35 33 32 28 29 27 26 26 24 22 22 21 26 28 27 28 28 27 20 17 18 24 28 29 29 29 26 22
37 37 37 38 39 40 40 41 42 44 44 43 35 29 33 34 32 30 32 33 32 35 32 30 27 25 23 22 22 21 20 23 27 26 29 29 28 24 18 25 31 31 31 29 29 26 27
34 35 36 37 37 38 39 39 40 41 43 41 37 30 30 28 30 31 32 31 29 30 35 36 35 32 27 24 25 22 21 20 26 28 26 27 22 23 23 23 31 30 30 30 29 29 27
34 34 34 34 35 36 37 38 40 40 42 38 33 33 34 33 30 31 29 30 30 32 31 30 30 31 33 32 32 27 31 26 27 28 26 26 23 22 21 21 25 29 27 24 24 25 26
36 35 34 34 34 34 35 36 38 40 40 37 38 34 32 30 30 30 27 24 23 26 31 31 33 31 29 33 36 36 38 35 34 32 31 30 27 23 22 20 18 20 24 20 18 20 19
36 34 35 35 35 34 34 35 36 38 39 36 35 33 29 22 25 27 26 25 24 25 25 27 27 28 29 33 28 27 29 33 30 29 29 29 30 28 24 21 18 21 20 23 21 15 14
35 35 36 35 33 34 35 34 36 37 38 36 29 27 29 23 19 14 12 24 23 22 25 25 25 23 35 29 25 21 20 22 29 27 25 28 28 24 23 21 19 17 16 15 13 13 14
34 35 35 35 36 34 34 36 35 36 37 35 33 29 31 25 19 16 12 11 10 11 20 25 23 24 23 28 25 21 16 18 16 18 23 24 27 25 27 21 17 21 19 17 15 21 24
33 33 33 35 36 36 35 35 35 35 36 35 29 32 26 27 23 21 14 14 13 11 11 14 13 22 24 22 19 15 17 18 20 21 20 22 23 23 24 21 19 18 15 15 12 14 13
38 36 36 35 35 36 36 36 36 35 36 34 31 36 32 28 24 23 21 18 16 15 13 15 16 20 26 23 18 17 12 13 14 16 18 19 24 23 23 23 19 19 17 19 24 22 19
37 40 37 36 36 37 38 37 37 36 36 36 29 35 33 31 28 28 29 28 27 23 19 19 17 16 24 23 21 21 21 24 21 20 20 20 23 26 24 22 24 21 22 22 25 22 19